| time (UTC) | temp F | wind direction | speed knots | gust knots | rain 1hr in | rain 24hr in | rain mn in | humidity % | barometer mb |
| 20260510230303 | 63 | 76 | 0.9 | 4.3 | 36.63 | 0.00 | 0.00 | 100 | 1007.4 |
| 20260510225301 | 63 | 101 | 3.5 | 5.2 | 36.63 | 0.00 | 0.00 | 100 | 1007.2 |
| 20260510224301 | 64 | 60 | 3.5 | 6.1 | 36.63 | 0.00 | 0.00 | 100 | 1007.3 |
| 20260510223303 | 64 | 86 | 2.6 | 4.3 | 36.63 | 0.00 | 0.00 | 100 | 1007.2 |
| 20260510222305 | 67 | 257 | 4.3 | 9.6 | 36.63 | 0.00 | 0.00 | 97 | 1007.4 |
| 20260510221301 | 70 | 236 | 3.5 | 9.6 | 36.63 | 0.00 | 0.00 | 85 | 1006.9 |
| 20260510220305 | 72 | 354 | 0.9 | 2.6 | 36.63 | 0.00 | 0.00 | 78 | 1005.9 |
| 20260510215306 | 73 | 60 | 0.9 | 2.6 | 36.63 | 0.00 | 0.00 | 75 | 1005.4 |
| 20260510214307 | 73 | 285 | 0.9 | 2.6 | 36.63 | 0.00 | 0.00 | 74 | 1005.2 |
| 20260510213303 | 74 | 294 | 0.0 | 1.7 | 36.63 | 0.00 | 0.00 | 75 | 1005.2 |
| 20260510212306 | 74 | 0 | 0.0 | 0.0 | 36.63 | 0.00 | 0.00 | 71 | 1005.2 |
| 20260510211303 | 74 | 308 | 0.0 | 2.6 | 36.63 | 0.00 | 0.00 | 71 | 1005.2 |
| 20260510210304 | 74 | 264 | 2.6 | 5.2 | 36.63 | 0.00 | 0.00 | 70 | 1005.1 |
| 20260510205306 | 74 | 260 | 1.7 | 3.5 | 36.63 | 0.00 | 0.00 | 68 | 1004.9 |
| 20260510204303 | 74 | 242 | 5.2 | 7.8 | 36.63 | 0.00 | 0.00 | 67 | 1004.8 |
| 20260510203306 | 74 | 255 | 6.1 | 8.7 | 36.63 | 0.00 | 0.00 | 67 | 1004.7 |
| 20260510202306 | 75 | 281 | 2.6 | 8.7 | 36.63 | 0.00 | 0.00 | 65 | 1004.8 |
| 20260510200305 | 74 | 245 | 5.2 | 9.6 | 36.63 | 0.00 | 0.00 | 66 | 1005.2 |
| 20260510195306 | 74 | 276 | 4.3 | 8.7 | 36.63 | 0.00 | 0.00 | 66 | 1005.3 |
| 20260510194304 | 74 | 257 | 7.0 | 11.3 | 36.63 | 0.00 | 0.00 | 66 | 1005.4 |
| 20260510193309 | 75 | 249 | 6.1 | 10.4 | 36.63 | 0.00 | 0.00 | 66 | 1005.5 |
| 20260510192309 | 74 | 238 | 5.2 | 8.7 | 36.63 | 0.00 | 0.00 | 66 | 1005.6 |
| 20260510191302 | 74 | 252 | 5.2 | 12.2 | 36.63 | 0.00 | 0.00 | 65 | 1005.7 |
| 20260510190306 | 75 | 242 | 5.2 | 12.2 | 36.63 | 0.00 | 0.00 | 65 | 1005.8 |
| 20260510185305 | 74 | 233 | 4.3 | 12.2 | 36.63 | 0.00 | 0.00 | 66 | 1005.9 |
| 20260510183306 | 74 | 271 | 5.2 | 10.4 | 36.63 | 0.00 | 0.00 | 68 | 1006.1 |
| 20260510182306 | 73 | 262 | 6.1 | 9.6 | 36.63 | 0.00 | 0.00 | 68 | 1006.1 |
| 20260510181302 | 73 | 245 | 4.3 | 8.7 | 36.63 | 0.00 | 0.00 | 71 | 1006.2 |
| 20260510180304 | 73 | 246 | 7.0 | 13.0 | 36.63 | 0.00 | 0.00 | 70 | 1006.2 |
| 20260510175305 | 74 | 255 | 8.7 | 11.3 | 36.63 | 0.00 | 0.00 | 69 | 1006.4 |
| 20260510173303 | 72 | 248 | 7.8 | 11.3 | 36.63 | 0.00 | 0.00 | 70 | 1006.6 |
| 20260510172306 | 72 | 269 | 6.1 | 8.7 | 36.63 | 0.00 | 0.00 | 69 | 1006.4 |
| 20260510171302 | 71 | 248 | 7.0 | 11.3 | 36.63 | 0.00 | 0.00 | 70 | 1006.6 |
| 20260510170304 | 72 | 256 | 4.3 | 7.0 | 36.63 | 0.00 | 0.00 | 73 | 1006.6 |
| 20260510165305 | 72 | 274 | 1.7 | 3.5 | 36.63 | 0.00 | 0.00 | 74 | 1006.9 |
| 20260510164304 | 69 | 257 | 3.5 | 7.0 | 36.63 | 0.00 | 0.00 | 74 | 1006.9 |
| 20260510163303 | 71 | 246 | 5.2 | 7.8 | 36.63 | 0.00 | 0.00 | 75 | 1007.0 |
| 20260510162313 | 71 | 249 | 6.1 | 8.7 | 36.63 | 0.00 | 0.00 | 77 | 1007.1 |
| 20260510161301 | 69 | 262 | 7.0 | 8.7 | 36.63 | 0.00 | 0.00 | 77 | 1007.1 |
| 20260510160307 | 69 | 256 | 8.7 | 13.0 | 36.63 | 0.00 | 0.00 | 77 | 1007.0 |
| 20260510155305 | 70 | 250 | 8.7 | 12.2 | 36.63 | 0.00 | 0.00 | 77 | 1007.1 |
| 20260510153305 | 69 | 253 | 7.8 | 13.9 | 36.63 | 0.00 | 0.00 | 79 | 1007.1 |
| 20260510152301 | 69 | 246 | 7.0 | 11.3 | 36.63 | 0.00 | 0.00 | 84 | 1007.2 |
| 20260510151301 | 68 | 253 | 7.8 | 10.4 | 36.63 | 0.00 | 0.00 | 87 | 1007.3 |
| 20260510150305 | 67 | 253 | 5.2 | 7.8 | 36.63 | 0.00 | 0.00 | 91 | 1007.2 |
| 20260510145305 | 66 | 235 | 3.5 | 6.1 | 36.63 | 0.00 | 0.00 | 93 | 1007.1 |
| 20260510144303 | 64 | 255 | 4.3 | 6.1 | 36.63 | 0.00 | 0.00 | 95 | 1007.2 |
| 20260510143303 | 64 | 256 | 4.3 | 7.0 | 36.63 | 0.00 | 0.00 | 96 | 1007.2 |
| 20260510142301 | 64 | 253 | 4.3 | 7.0 | 36.63 | 0.00 | 0.00 | 96 | 1007.3 |
| 20260510141301 | 63 | 257 | 6.1 | 7.8 | 36.63 | 0.00 | 0.00 | 96 | 1007.5 |
| 20260510140307 | 63 | 262 | 5.2 | 6.1 | 36.63 | 0.00 | 0.00 | 97 | 1007.4 |
| 20260510135305 | 62 | 257 | 4.3 | 6.1 | 36.63 | 0.00 | 0.00 | 97 | 1007.4 |
| 20260510134302 | 61 | 260 | 5.2 | 7.8 | 36.63 | 0.00 | 0.00 | 97 | 1007.5 |
| 20260510133308 | 60 | 253 | 4.3 | 6.1 | 36.63 | 0.00 | 0.00 | 98 | 1007.5 |
| 20260510132308 | 59 | 255 | 4.3 | 7.0 | 36.63 | 0.00 | 0.00 | 98 | 1007.6 |
| 20260510131304 | 59 | 224 | 0.9 | 2.6 | 36.63 | 0.00 | 0.00 | 99 | 1007.8 |
| 20260510130303 | 58 | 0 | 0.0 | 0.0 | 36.63 | 0.00 | 0.00 | 99 | 1007.9 |
| 20260510125306 | 58 | 146 | 0.9 | 2.6 | 36.63 | 0.00 | 0.00 | 99 | 1007.9 |
| 20260510124304 | 58 | 30 | 0.9 | 2.6 | 36.63 | 0.00 | 0.00 | 100 | 1008.0 |
| 20260510123304 | 57 | 53 | 1.7 | 3.5 | 36.63 | 0.00 | 0.00 | 100 | 1008.0 |
| 20260510122306 | 56 | 59 | 1.7 | 3.5 | 36.63 | 0.00 | 0.00 | 100 | 1007.8 |
| 20260510115305 | 55 | 55 | 0.9 | 2.6 | 36.63 | 0.00 | 0.00 | 100 | 1007.6 |
| 20260510114300 | 54 | 359 | 1.7 | 3.5 | 36.63 | 0.00 | 0.00 | 100 | 1007.5 |
| 20260510113302 | 54 | 98 | 1.7 | 2.6 | 36.63 | 0.00 | 0.00 | 100 | 1007.3 |
| 20260510112305 | 54 | 68 | 0.0 | 1.7 | 36.63 | 0.00 | 0.00 | 100 | 1007.2 |
| 20260510111301 | 53 | 37 | 0.9 | 3.5 | 36.63 | 0.00 | 0.00 | 100 | 1007.2 |
| 20260510110304 | 52 | 347 | 0.0 | 1.7 | 36.63 | 0.00 | 0.00 | 100 | 1007.1 |
| 20260510105300 | 52 | 314 | 0.9 | 2.6 | 36.63 | 0.00 | 0.00 | 100 | 1006.8 |
| 20260510104301 | 52 | 0 | 0.0 | 0.0 | 36.63 | 0.00 | 0.00 | 100 | 1006.4 |
| 20260510103300 | 51 | 0 | 0.0 | 0.0 | 36.63 | 0.00 | 0.00 | 100 | 1006.2 |
| 20260510102305 | 50 | 0 | 0.0 | 0.0 | 36.63 | 0.00 | 0.00 | 100 | 1006.2 |
| 20260510101302 | 50 | 0 | 0.0 | 0.0 | 36.63 | 0.00 | 0.00 | 100 | 1006.3 |
| 20260510100304 | 51 | 0 | 0.0 | 0.0 | 36.63 | 0.00 | 0.00 | 100 | 1006.4 |
| 20260510095305 | 50 | 0 | 0.0 | 0.0 | 36.63 | 0.00 | 0.00 | 100 | 1006.4 |
| 20260510094309 | 50 | 0 | 0.0 | 0.0 | 36.63 | 0.00 | 0.00 | 100 | 1006.3 |
| 20260510093304 | 50 | 86 | 0.9 | 2.6 | 36.63 | 0.00 | 0.00 | 100 | 1006.1 |
| 20260510092301 | 51 | 295 | 1.7 | 3.5 | 36.63 | 0.00 | 0.00 | 100 | 1006.2 |
| 20260510091301 | 51 | 108 | 1.7 | 5.2 | 36.63 | 0.00 | 0.00 | 100 | 1005.9 |
| 20260510090310 | 50 | 162 | 0.9 | 2.6 | 36.63 | 0.00 | 0.00 | 100 | 1006.0 |
| 20260510085301 | 50 | 0 | 0.0 | 0.0 | 36.63 | 0.00 | 0.00 | 100 | 1005.6 |
| 20260510084302 | 50 | 0 | 0.0 | 0.9 | 36.63 | 0.00 | 0.00 | 100 | 1005.5 |
| 20260510083303 | 50 | 353 | 0.0 | 0.9 | 36.63 | 0.00 | 0.00 | 100 | 1005.3 |
| 20260510082306 | 50 | 321 | 0.9 | 2.6 | 36.63 | 0.00 | 0.00 | 100 | 1005.2 |
| 20260510081302 | 50 | 333 | 0.9 | 2.6 | 36.63 | 0.00 | 0.00 | 100 | 1005.1 |
| 20260510080335 | 51 | 11 | 0.9 | 1.7 | 36.63 | 0.00 | 0.00 | 100 | 1005.1 |
| 20260510080304 | 51 | 11 | 0.9 | 1.7 | 36.63 | 0.00 | 0.00 | 100 | 1005.1 |
| 20260510075301 | 51 | 326 | 2.6 | 3.5 | 36.63 | 0.00 | 0.00 | 100 | 1005.0 |
| 20260510074302 | 52 | 323 | 1.7 | 2.6 | 36.63 | 0.00 | 0.00 | 100 | 1004.9 |
| 20260510073303 | 52 | 329 | 0.0 | 2.6 | 36.63 | 0.00 | 0.00 | 100 | 1004.8 |
| 20260510072301 | 52 | 0 | 0.0 | 0.0 | 36.63 | 0.00 | 0.00 | 100 | 1004.8 |
| 20260510071301 | 53 | 0 | 0.0 | 0.0 | 36.63 | 0.00 | 0.00 | 100 | 1004.7 |
| 20260510070306 | 53 | 0 | 0.0 | 0.0 | 36.63 | 0.00 | 0.00 | 100 | 1004.7 |
| 20260510065301 | 53 | 60 | 0.9 | 1.7 | 36.63 | 0.00 | 0.00 | 100 | 1004.6 |
| 20260510064305 | 53 | 34 | 0.9 | 2.6 | 36.63 | 0.00 | 0.00 | 100 | 1004.5 |
| 20260510063303 | 53 | 69 | 0.9 | 1.7 | 36.63 | 0.00 | 0.00 | 100 | 1004.5 |
| 20260510062308 | 52 | 4 | 1.7 | 3.5 | 36.63 | 0.00 | 0.00 | 100 | 1004.7 |
| 20260510061303 | 53 | 0 | 0.0 | 0.0 | 36.63 | 0.00 | 0.00 | 100 | 1004.9 |
| 20260510060306 | 53 | 0 | 0.0 | 0.0 | 36.63 | 0.00 | 0.00 | 100 | 1004.8 |
| 20260510055301 | 53 | 14 | 0.9 | 3.5 | 36.63 | 0.00 | 0.00 | 100 | 1004.8 |
| 20260510054306 | 53 | 35 | 0.9 | 2.6 | 36.63 | 0.00 | 0.00 | 100 | 1004.8 |
| 20260510053303 | 53 | 1 | 0.0 | 1.7 | 36.63 | 0.00 | 0.00 | 100 | 1004.8 |
| 20260510052308 | 53 | 23 | 1.7 | 2.6 | 36.63 | 0.00 | 0.00 | 100 | 1004.8 |
| 20260510051301 | 53 | 34 | 0.0 | 2.6 | 36.63 | 0.00 | 0.00 | 100 | 1004.9 |
| 20260510050306 | 53 | 0 | 0.0 | 0.0 | 36.63 | 0.00 | 0.00 | 100 | 1005.0 |
| 20260510045306 | 53 | 8 | 0.9 | 2.6 | 36.63 | 0.00 | 0.00 | 100 | 1005.1 |
| 20260510044306 | 53 | 25 | 0.9 | 1.7 | 36.63 | 0.00 | 0.00 | 100 | 1005.0 |
| 20260510043303 | 54 | 4 | 0.9 | 3.5 | 36.63 | 0.00 | 0.00 | 100 | 1005.0 |
| 20260510042309 | 54 | 23 | 1.7 | 3.5 | 36.63 | 0.00 | 0.00 | 100 | 1004.9 |
| 20260510041304 | 54 | 13 | 0.9 | 1.7 | 36.63 | 0.00 | 0.00 | 100 | 1005.0 |
| 20260510040304 | 54 | 14 | 1.7 | 2.6 | 36.63 | 0.00 | 0.00 | 100 | 1004.9 |
| 20260510035306 | 55 | 14 | 1.7 | 3.5 | 36.63 | 0.00 | 0.00 | 100 | 1004.9 |
| 20260510034305 | 55 | 8 | 1.7 | 3.5 | 36.63 | 0.00 | 0.00 | 100 | 1004.8 |
| 20260510033305 | 55 | 350 | 2.6 | 3.5 | 36.63 | 0.00 | 0.00 | 100 | 1004.7 |
| 20260510032307 | 55 | 46 | 0.9 | 1.7 | 36.63 | 0.00 | 0.00 | 100 | 1004.6 |
| 20260510031301 | 55 | 356 | 1.7 | 2.6 | 36.63 | 0.00 | 0.00 | 100 | 1004.6 |
| 20260510030313 | 55 | 30 | 1.7 | 2.6 | 36.63 | 0.00 | 0.00 | 100 | 1004.5 |
| 20260510025306 | 56 | 25 | 0.9 | 1.7 | 36.63 | 0.00 | 0.00 | 100 | 1004.5 |
| 20260510024305 | 56 | 0 | 0.0 | 0.0 | 36.63 | 0.00 | 0.00 | 100 | 1004.4 |
| 20260510023305 | 56 | 35 | 0.0 | 1.7 | 36.63 | 0.00 | 0.00 | 100 | 1004.4 |
| 20260510022306 | 56 | 7 | 0.0 | 1.7 | 36.63 | 0.00 | 0.00 | 100 | 1004.4 |
| 20260510021301 | 57 | 0 | 0.0 | 0.0 | 36.63 | 0.00 | 0.00 | 100 | 1004.3 |
| 20260510015306 | 57 | 73 | 0.9 | 3.5 | 36.63 | 0.00 | 0.00 | 99 | 1004.2 |
| 20260510014301 | 57 | 48 | 0.9 | 2.6 | 36.63 | 0.00 | 0.00 | 99 | 1004.2 |
| 20260510013303 | 57 | 104 | 0.0 | 0.9 | 36.63 | 0.00 | 0.00 | 99 | 1004.2 |
| 20260510012308 | 58 | 70 | 0.0 | 1.7 | 36.63 | 0.00 | 0.00 | 99 | 1004.2 |
| 20260510011302 | 58 | 30 | 2.6 | 3.5 | 36.63 | 0.00 | 0.00 | 98 | 1004.0 |
| 20260510010304 | 58 | 34 | 2.6 | 4.3 | 36.63 | 0.00 | 0.00 | 98 | 1003.9 |
| 20260510005306 | 58 | 73 | 2.6 | 5.2 | 36.63 | 0.00 | 0.00 | 98 | 1003.8 |
| 20260510004305 | 58 | 62 | 2.6 | 5.2 | 36.63 | 0.00 | 0.00 | 98 | 1003.9 |
| 20260510003304 | 59 | 75 | 2.6 | 5.2 | 36.63 | 0.00 | 0.00 | 97 | 1003.7 |
| 20260510002306 | 59 | 90 | 2.6 | 6.1 | 36.63 | 0.00 | 0.00 | 97 | 1003.7 |
| 20260510001303 | 59 | 77 | 3.5 | 6.1 | 36.63 | 0.00 | 0.00 | 97 | 1003.6 |
| 20260510000318 | 60 | 77 | 2.6 | 6.1 | 36.63 | 0.00 | 0.00 | 97 | 1003.6 |
| 20260509235306 | 60 | 6 | 3.5 | 7.8 | 36.63 | 0.00 | 0.00 | 96 | 1003.5 |
| 20260509234303 | 60 | 91 | 3.5 | 6.1 | 36.63 | 0.00 | 0.00 | 96 | 1003.5 |
| 20260509233304 | 61 | 65 | 3.5 | 6.1 | 36.63 | 0.00 | 0.00 | 96 | 1003.4 |
| 20260509232312 | 61 | 28 | 4.3 | 9.6 | 36.63 | 0.00 | 0.00 | 95 | 1003.2 |
| 20260509231302 | 61 | 68 | 6.1 | 10.4 | 36.63 | 0.00 | 0.00 | 95 | 1003.1 |